Content
SEND FEEDBACK

Daily
Averages
Monthly
Summary
United States of America

ROCK VIEW, WEST VIRGINIA


Home > North America > United States > West Virginia
Elevation: 1563 feet     Latitude: 37 35N     Longitude: 081 32W

WEATHER
 
SELECT A DAY
Number of Records: 238,359;   Date Range: 8/16/04 - 9/29/14
 
SHARE

PRINT THIS DATA

[ ← Previous Day ]
WEATHER ALMANAC - FEBRUARY 13, 2013
[ Next Day → ]
[ °C ]   °F
Weather ElementAverageHighLow
Temperature39.1 °F45.1 °F (9:55 am)35.2 °F (9:35 pm)
Dewpoint35.8 °F43.7 °F (12:15 pm)31.5 °F (8:15 am)
Humidity88.8 %100 % (1:15 pm)63 % (8:55 am)
Barometer29.79 in29.95 in (11:55 pm)29.63 in (1:55 pm)

Weather ElementAverage
Weather ElementTotal
Precipitation---
Heating Degree Days24.9 (Base 65)
Averaged from 68 records on February 13, 2013
WEATHER CONDITIONS BREAKOUT
WIND DIRECTION BREAKOUT
WEATHER BY HOUR - FEBRUARY 13, 2013
[ °C ]   °F
Local TimeTemperatureDewpointHumidityBarometerVisibilityWind DirectionWind SpeedGust SpeedPrecipitationEventsConditions
12:55 AM37.4 °F32.0 °F81 %29.91 in10.0 miNorthOvercast
1:15 AM37.9 °F31.8 °F79 %29.91 in10.0 miNorthOvercast
1:35 AM37.8 °F32.7 °F82 %29.90 in10.0 miNorthOvercast
1:55 AM38.5 °F32.4 °F79 %29.89 in10.0 miNorthOvercast
2:15 AM38.7 °F32.7 °F79 %29.89 in10.0 miNorthOvercast
2:35 AM38.8 °F32.4 °F78 %29.89 in10.0 miNorthOvercast
2:55 AM38.7 °F32.4 °F78 %29.87 in10.0 miNorthOvercast
3:15 AM39.2 °F32.5 °F77 %29.87 in10.0 miNorthOvercast
3:35 AM39.0 °F33.1 °F79 %29.86 in10.0 miNorthOvercast
3:55 AM38.8 °F32.7 °F79 %29.85 in10.0 miNorthOvercast
4:15 AM38.8 °F33.3 °F80 %29.84 in10.0 miNorthOvercast
4:35 AM38.7 °F33.6 °F82 %29.83 in10.0 miNorthOvercast
4:55 AM38.3 °F32.4 °F79 %29.82 in10.0 miNorthOvercast
5:15 AM38.3 °F32.0 °F78 %29.81 in10.0 miNorthOvercast
5:35 AM38.1 °F32.7 °F81 %29.80 in10.0 miNorthOvercast
5:55 AM37.4 °F32.0 °F81 %29.80 in10.0 miNorthOvercast
6:15 AM37.8 °F32.5 °F81 %29.79 in10.0 miNorthOvercast
6:35 AM38.3 °F32.7 °F80 %29.79 in10.0 miNorthOvercast
6:55 AM38.5 °F33.1 °F81 %29.77 in10.0 miNorthOvercast
7:15 AM39.2 °F32.2 °F76 %29.76 in10.0 miNorthOvercast
7:35 AM39.4 °F33.3 °F79 %29.75 in10.0 miNorthOvercast
7:55 AM40.1 °F34.0 °F79 %29.73 in10.0 miNorthOvercast
8:15 AM41.9 °F31.5 °F66 %29.71 in10.0 miNorthOvercast
8:35 AM42.3 °F31.8 °F67 %29.71 in10.0 miNorthOvercast
8:55 AM44.4 °F32.5 °F63 %29.72 in10.0 miNorthOvercast
9:15 AM44.1 °F35.8 °F73 %29.72 in7.0 miNorthRainLight Rain
9:35 AM45.0 °F36.1 °F71 %29.71 in10.0 miNorthOvercast
9:55 AM45.1 °F38.1 °F76 %29.70 in4.0 miNorthRainRain
10:15 AM44.1 °F40.1 °F86 %29.69 in7.0 miNorthRainLight Rain
10:35 AM43.7 °F41.0 °F90 %29.69 in2.0 miNorthRainLight Rain
10:55 AM43.9 °F42.1 °F93 %29.69 in3.0 miNorthRainLight Rain
11:15 AM43.9 °F42.6 °F95 %29.68 in2.0 miNorthRainLight Rain
11:55 AM43.7 °F43.2 °F98 %29.68 in1.5 miNorthRainRain
12:15 PM44.1 °F43.7 °F99 %29.67 in1.5 miNorthRainLight Rain
12:35 PM44.1 °F43.7 °F99 %29.66 in5.0 miNorthRainRain
12:55 PM42.8 °F42.4 °F99 %29.66 in1.2 miNorthRainLight Rain
1:15 PM42.8 °F42.8 °F100 %29.64 in3.0 miNorthRainRain
1:35 PM43.0 °F42.8 °F99 %29.64 in5.0 miNorthRainLight Rain
1:55 PM42.3 °F42.1 °F99 %29.63 in10.0 miNorthOvercast
2:15 PM41.4 °F41.0 °F99 %29.64 in5.0 miNorthOvercast
2:35 PM40.6 °F40.5 °F99 %29.65 in2.0 miNorthOvercast
2:55 PM40.1 °F40.1 °F100 %29.66 in2.5 miNorthOvercast
3:35 PM38.7 °F38.3 °F99 %29.70 in2.5 miNorthOvercast
3:55 PM38.3 °F37.8 °F98 %29.72 in4.0 miNorthOvercast
4:15 PM38.3 °F37.4 °F97 %29.73 in10.0 miNorthOvercast
4:35 PM37.8 °F37.0 °F97 %29.75 in5.0 miNorthOvercast
4:55 PM37.4 °F36.7 °F97 %29.77 in4.0 miNorthOvercast
5:15 PM37.4 °F36.7 °F97 %29.77 in5.0 miNorthSnowLight Snow
5:35 PM37.2 °F36.3 °F97 %29.80 in10.0 miNorthOvercast
5:55 PM37.0 °F36.3 °F97 %29.80 in10.0 miNorthOvercast
6:15 PM36.9 °F36.1 °F97 %29.81 in10.0 miNorthOvercast
6:35 PM36.7 °F35.2 °F95 %29.82 in10.0 miNorthSnowLight Snow
6:55 PM36.5 °F34.7 °F93 %29.84 in10.0 miNorthSnowLight Snow
7:15 PM36.5 °F35.1 °F95 %29.85 in10.0 miNorthSnowLight Snow
7:35 PM36.5 °F35.6 °F97 %29.86 in7.0 miNorthSnowLight Snow
7:55 PM36.1 °F35.6 °F98 %29.87 in10.0 miNorthSnowLight Snow
8:15 PM35.8 °F35.1 °F97 %29.88 in10.0 miNorthOvercast
8:35 PM35.6 °F34.9 °F97 %29.89 in10.0 miNorthOvercast
8:55 PM35.6 °F34.7 °F97 %29.89 in10.0 miNorthOvercast
9:15 PM35.6 °F34.7 °F97 %29.89 in5.0 miNorthSnowLight Snow
9:35 PM35.2 °F34.7 °F98 %29.90 in7.0 miNorthOvercast
9:55 PM35.6 °F34.9 °F97 %29.91 in7.0 miNorthOvercast
10:15 PM35.2 °F34.7 °F98 %29.91 in10.0 miNorthOvercast
10:35 PM35.4 °F34.7 °F97 %29.92 in10.0 miNorthOvercast
10:55 PM35.2 °F34.3 °F97 %29.92 in10.0 miNorthOvercast
11:15 PM35.4 °F34.5 °F97 %29.93 in10.0 miNorthOvercast
11:35 PM35.2 °F34.3 °F97 %29.94 in7.0 miNorthOvercast
11:55 PM35.2 °F34.7 °F98 %29.95 in10.0 miNorthOvercast
Hourly data recorded from KI16, located miles away from Rock View, West Virginia







STORIES FROM OUR PARTNERS